www.pogodaiklimat.ru

Погода и климат >> Архив погоды >> Гамбия >> Банжул


ПОГОДА в Банжуле

  • Прогноз погоды в Банжуле
  • Монитор погоды в Банжуле

АРХИВ ПОГОДЫ в Банжуле

Время (UTC), дата Ветер
(напр.,м/с)
 
Видим.   Явления Облачность Т
(С)
Тd
(С)
f
(%)
Тe
(С)
Тes
(С)
Комфортность P
(гПа)
Po
(гПа)
Тmin
(С)
Tmax
(С)
R
(мм)
R24
(мм)
S
(см)
21 9.09 СВ 1 10 км гроза без осадков 9/4 300 м
[Cb cap Ac As]
+26.1 +24.9 93 +37 +37 очень
душно
1012.0 1008.2
00 10.09 В 1 10 км 8/3 300 м
[Sc Ac As]
+25.6 +24.8 95 +36 +36 очень
душно
1013.7 1009.9
03 10.09 В 2 10 км 6/4 300 м
[Sc Ac As]
+25.2 +24.7 97 +35 +35 очень
душно
1012.2 1008.4
06 10.09 В 2 10 км 5/5 300 м
[Sc Ac As]
+24.6 +24.3 98 +34 +34 очень
душно
1012.2 1008.4 +23.4
09 10.09 СВ 2 10 км 8/5 330 м
[Sc Ac trans]
+26.7 +25.7 94 +39 +41 очень
душно
1013.5 1009.7
12 10.09 В 3 10 км 6/6 400 м
[Sc Ac trans]
+31.1 +26.2 75 +47 +54 опасность
перегрева
1013.0 1009.3
15 10.09 З 5 10 км в посл. час дождь 8/6 400 м
[Cb calv Ac trans]
+29.2 +24.1 74 +41 +43 опасность
перегрева
1011.1 1007.3
18 10.09 З 3 10 км 6/6 360 м
[Cb calv Ci sp]
+29.3 +25.1 78 +42 +43 опасность
перегрева
1009.9 1006.1 +32.1 0.0
21 10.09 В 2 9000 м гроза, ливневой дождь 9/6 330 м
[Cb cap Ac As]
+25.6 +25.4 99 +37 +37 очень
душно
1012.2 1008.4
00 11.09 СВ 3 10 км гроза без осадков 9/6 300 м
[Cb cap Ac As Ci sp]
+24.8 +24.5 98 +35 +35 очень
душно
1013.4 1009.6 9
03 11.09 Ю 2 10 км 6/0
[Ac As]
+24.4 +24.1 98 +34 +34 очень
душно
1011.3 1007.5
06 11.09 С 4 10 км 3/0
[Ac trans]
+23.9 +23.6 98 +32 +32 очень
душно
1011.1 1007.3 +20.5 10
09 11.09 ЮВ 3 10 км 6/3 330 м
[Sc Ac trans]
+25.9 +27.5 100 +38 +40 очень
душно
1012.5 1008.7
12 11.09 СЗ 2 10 км 6/5 360 м
[Cu Sc Ci sp]
+30.2 +26.1 79 +46 +56 опасность
перегрева
1012.5 1008.7
15 11.09 З 3 10 км 8/6 400 м
[Cu Sc]
+30.8 +26.3 77 +47 +51 опасность
перегрева
1010.7 1007.0
18 11.09 З 5 10 км 8/6 360 м
[Cu Sc Ac trans]
+29.4 +25.3 79 +43 +43 опасность
перегрева
1009.5 1005.7 +31.9
21 11.09 З 2 9000 м слаб. дождь 9/6 330 м
[Cb calv Ac As]
+27.3 +25.3 89 +40 +40 очень
душно
1011.9 1008.1
00 12.09 Ю 2 10 км зарница {дождь} 8/5 300 м
[Cb calv Ac trans]
+25.7 +25.1 96 +37 +37 очень
душно
1012.6 1008.8 21
03 12.09 ЮВ 2 9000 м гроза, ливневой дождь 8/5 300 м
[Cb cap Ac As]
+23.0 +22.5 97 +32 +32 очень
душно
1011.2 1007.4
06 12.09 ЮВ 1 10 км 8/5 300 м
[Sc Ac As]
+23.0 +21.8 93 +31 +31 очень
душно
1010.5 1006.7 +22.0 21
09 12.09 В 3 10 км 8/4 330 м
[Sc Ac trans Ci sp]
+25.4 +24.5 95 +36 +37 очень
душно
1013.4 1009.6
12 12.09 С 3 10 км 5/4 360 м
[Cu Sc Ci sp]
+30.4 +26.7 81 +47 +58 опасность
перегрева
1012.4 1008.6
15 12.09 С 5 10 км 5/5 360 м
[Cu Sc]
+32.1 +26.0 70 +48 +52 опасность
перегрева
1010.2 1006.5
03 15.09 В 1 10 км 9/3 300 м
[Sc Ac trans]
+24.1 +24.2 100 +33 +33 очень
душно
1011.3 1007.5
06 15.09 ЮВ 2 10 км 9/0
[Ac As]
+24.0 +24.0 100 +33 +33 очень
душно
1011.5 1007.7 +23.0 19
09 15.09 В 3 10 км 8/4 330 м
[Sc Ac As]
+25.8 +25.6 99 +38 +39 очень
душно
1013.0 1009.2
12 15.09 ЮВ 3 10 км 8/4 360 м
[Cu Sc Ac trans]
+30.0 +27.0 84 +47 +53 опасность
перегрева
1013.7 1009.9
18 15.09 Ю 3 10 км 8/6 400 м
[Cb cap Ci sp]
+29.9 +25.9 79 +45 +45 опасность
перегрева
1010.8 1007.0 +33.4
21 15.09 ЮЗ 3 10 км зарница 8/6 330 м
[Cb cap Ac trans]
+26.9 +25.6 93 +40 +40 очень
душно
1011.5 1007.7
00 16.09 Ю 2 10 км гроза без осадков 8/6 300 м
[Cb cap Ac As]
+26.7 +25.8 95 +40 +40 очень
душно
1013.7 1009.9
03 16.09 З 2 9000 м гроза, ливневой дождь 9/6 300 м
[Cb cap Ac As]
+24.6 +23.2 92 +33 +33 очень
душно
1011.8 1008.0
06 16.09 Ю 2 10 км 9/5 300 м
[Sc Ac As]
+23.6 +22.7 95 +31 +31 очень
душно
1012.5 1008.7 +23.0 0.0
12 16.09 Ю 2 10 км 8/3 360 м
[Sc Ci sp]
+30.0 +24.7 73 +43 +55 опасность
перегрева
1013.5 1009.7

 

Местоположение метеостанции Банжул (Гамбия): широта 13.34 долгота -16.65 высота над уровнем моря 33 м.

В архиве по умолчанию представлена погода в Банжуле за последнюю неделю. Архивные данные за месяц целиком и за предыдущие месяцы, начиная с января 2011 года, Вы можете получить, выбрав интересующий диапазон дат из раскрывающегося списка и нажав кнопку "Ввод!".


*Определитесь, кто Вы:
робот инопланетянин человек

Внимание! Время в таблицах - всемирное. Для получения местного времени необходимо прибавить поправку, которая равна 0 ч.

Смотрите также архив погоды в соседних городах и на ближайших метеорологических станциях:

Погода в Банжуле Half-Die (Гамбия) (25 км)
Погода в Сибаноре (Гамбия) (51 км)
Погода в Кереване (Гамбия) (63 км)
Погода в Сапу (Гамбия) (82 км)
Погода в Зигиншоре (Сенегал) (98 км)
Погода в Кап Скиррен (Сенегал) (105 км)
Погода в Каолаке (Сенегал) (109 км)
Погода в Женое (Гамбия) (118 км)
Погода в Кауере (Гамбия) (150 км)
Погода в Диурбеле (Сенегал) (153 км)

Пояснения к столбцам:

Ветер - указаны скорость ветра в м/с - средняя за 10 мин, порывы в срок и между сроками (в фигурных скобках) и направление, откуда дует ветер: С - северный, СВ - северо-восточный, В - восточный, ЮВ - юго-восточный, Ю - южный, ЮЗ - юго-западный, З - западный, СЗ - северо-западный.
Видимость - горизонтальная дальность видимости в метрах или километрах. При видимости от 1 до 10 км при отсутствии осадков обычно наблюдается дымка, при ухудшении видимости до 1 км и менее - туман. В сухую погоду видимость может ухудшаться дымом, пылью или мглою.
Явления - указаны атмосферные явления, наблюдавшиеся в срок или в последний час перед сроком; фигурными скобками обозначены явления, наблюдавшиеся между сроками (за 1-3 часа до срока); квадратными скобками обозначены град или гололедные отложения с указанием их диаметра в мм.
Облачность - указаны через наклонную черту общая и нижняя облачность в баллах и высота нижней границы облаков в метрах; квадратными скобками обозначены формы облаков: Ci - перистые, Cs - перисто-слоистые, Cc - перисто-кучевые, Ac - высококучевые, As - высокослоистые, Sc - слоисто-кучевые, Ns - слоисто-дождевые, Cu - кучевые, Cb - кучево-дождевые. Подробнее классификацию облаков см. в Атласе облаков (PDF).
T - Температура воздуха - температура, измеренная на высоте 2 м над землей.
Td - Температура точки росы - температура, при понижении до которой содержащийся в воздухе водяной пар достигнет насыщения.
f - Относительная влажность воздуха - влажноcть воздуха, измеренная на высоте 2 м над землей.
Te - Эффективная температура - температура, которую ощущает одетый по сезону человек в тени. Характеристика душности погоды. При расчете учитывается влияние влажности воздуха и скорости ветра на теплоощущения человека.
Tes - Эффективная температура на солнце - температура, которую ощущает человек, с поправкой на солнечный нагрев. Характеристика знойности погоды. Зависит от высоты солнца над горизонтом, облачности и скорости ветра. Ночью, в пасмурную погоду, а также при ветре 12 м/с и более поправка равна нулю.
P - Атмосферное давление - приведенное к уровню моря атмосферное давление.
Po - Атмосферное давление - измеренное на уровне метеостанции атмосферное давление.
Tmin - Минимальная температура - минимум температуры воздуха на высоте 2 м над землей.
Tmax - Максимальная температура - максимум температуры воздуха на высоте 2 м над землей.
R - Количество осадков - Количество выпавших осадков за период времени, мм. При наведении курсора мыши на число - период времени, за который выпало указанное количество осадков.
R24 - Количество осадков - Количество выпавших осадков за 24 часа, мм.
S - Снежный покров - Высота снежного покрова, см. При наведении курсора мыши на число - состояние снежного покрова и степень покрытия местности в баллах.